STARLINK-32620, 61928

Orbit data source: Space-Track

STARLINK-32620, 61928 is a payload satellite owned by SpaceX/Seattle (US) in LEO that was launched on Mon, 11 Nov 2024 UTC via an FALCON 9 launch vehicle from the Air Force Eastern Test Range (AFETR). Payload-class satellites include a variety of spacecraft equipped with specific instruments for various scientific and technological missions. These include communications satellites like Starlink; space stations such as the ISS; scientific satellites like the Hubble; Earth observation satellites from companies like Planet Labs, Umbra, and HawkEye 360; GPS; miniature CubeSats for education and research; and military/defense satellites.

Loading next visibility...
Identifier
61928, 2024-207S
Orbit
LEO
Country
Flag of USUS
Related business
Manufacturer
SpaceX/Seattle
Mission
Operational Commercial Communications
Bus & Motor
STARLINK V2M, Unknown motor
Mass
730 kg wet, ~700 kg dry
Launch date (UTC)
2024-11-11 (2 years ago)
Launch vehicle
FALCON 9
Launch site
Air Force Eastern Test Range (AFETR)
Object type
Payload
Rocket body
Debris
Shape & HBR
Box + 2 Pan, 17.7 m
Radar Cross Section
33.884 m², Large (>1 m²)

Expand to show TLE details & history
Last TLE update: 9 hours ago

TLE from 9 hours ago
0 STARLINK-32620
1 61928U 24207S   26145.52921791  .00011010  00000-0  40888-3 0  9999
2 61928  43.0023 207.7929 0001419 271.3346  88.7343 15.27590381 86476
Epoch: 2026-05-25T12:42Z
TLE epoch observation values (Epoch: 2026-05-25T12:42:04.427Z)
Latitude
-0.00002°
Longitude
134.15873°
Altitude
482.772 km
Speed
7.626 km/s
True Right ascension
13h 51m 10s
True Declination
0° 00' 00"
Sunlit
Object was in full shadow at epoch
Visualization orbit readout
Latitude
Unknown
Longitude
Unknown
Altitude
Unknown
Speed
Unknown
Apparent Right ascension
Unknown
Apparent Declination
Unknown
Sunlit
N/A
Visualization observer readout
Local Sidereal Time
07:16:29
Azimuth
Unknown
Elevation
Unknown
Doppler factor
Unknown
Orbital elements
Apogee altitude
485.937 km
Perigee altitude
483.989 km
Semi-major axis
6,863.1 km
Eccentricity
0.00014
Inclination
43.0023°
RAAN
207.7929°
Arg. of periapsis
271.3346°
True anomaly
88.75056°
Mean anomaly
88.7343°
Eccentric anomaly
88.74243°
Mean motion
3.81736 °/min
Orbital period
94.31 mins
BSTAR
0.00040888
Loading maneuver chart data...
Computing Atmospheric mass density...
Loading historical data...
Loading historical data...
Loading historical data...
Loading historical data...
Loading historical data...
Loading historical data...
Loading historical data...

Documentation

Showing up to 5 results
|